Location: Mayfield
(51.0000°N, 0.2500°E)
Time: 10:45:28
(UTC+00:00)

Daily predictions for brighter satellites

Satellite Brightness Start Highest point End
(mag) Time Altitude Azimuth Time Altitude Azimuth Time Altitude Azimuth
Feng Yun 1-1 Rocket 4.3 19:26:54 10° SSE 19:32:28 81° ENE 19:38:14 10° NNW
Cosmos 1486 Rocket 4.0 19:28:44 10° NNW 19:33:59 75° ENE 19:39:10 10° SSE
Cosmos 1782 Rocket 3.8 19:30:42 10° SSW 19:35:06 79° WNW 19:39:33 10° N
CZ-4 R/B 2.1 19:32:43 10° S 19:36:32 55° W 19:40:20 10° NNW
Cosmos 1536 Rocket 4.2 19:36:46 10° N 19:40:54 37° ENE 19:45:02 10° SE
SJ 16-02 3.4 19:38:19 10° NW 19:42:02 28° W 19:45:44 10° SSW
DELTA 2 DEB (DPAF) 4.0 19:41:31 10° NNE 19:45:44 62° ESE 19:49:54 10° S
Resurs 01 Rocket 1.6 19:41:48 10° SSE 19:46:13 84° ENE 19:50:41 10° NNW
CENTAUR R/B 4.1 19:40:57 10° NW 19:47:56 39° NNE 19:56:05 10° E
NOSS 3-1 (A) 3.3 19:46:46 10° SSW 19:51:30 46° ESE 19:57:09 10° NE
Cosmos 1300 Rocket 4.1 19:49:11 10° SSW 19:53:32 65° WNW 19:57:57 10° N
ERS-1 Rocket 4.1 19:51:26 10° ESE 19:55:38 28° ENE 19:59:54 10° N
Cosmos 1934 Rocket 4.2 19:53:45 10° N 19:59:47 54° ENE 20:05:52 10° SSE
USA 229 DEB 4.4 19:55:53 10° SSE 20:00:46 25° ESE 20:05:59 10° ENE
USA 229 4.4 19:56:00 10° SSE 20:00:52 25° ESE 20:06:04 10° ENE
Cosmos 2151 Rocket 3.9 19:58:53 10° SSE 20:03:06 47° E 20:07:21 10° NNE
USA 234 3.8 19:58:59 10° SE 20:05:22 54° SW 20:11:46 10° WNW
USA 281 3.3 19:59:50 10° SSE 20:06:25 88° ENE 20:13:03 10° NNW
ATLAS CENTAUR R/B 2.9 20:03:49 10° NNW 20:06:49 22° NNE 20:09:53 10° E
Cosmos 2227 Rocket 3.1 20:02:40 10° NNW 20:07:53 35° NE 20:12:21 13° ESE
NOSS 3-1 (C) 3.4 20:06:45 10° SW 20:11:50 76° NW 20:18:04 10° NE
Iridium 2 3.4 20:09:30 10° N 20:12:20 42° E 20:14:16 17° SSE
SL-4 R/B 1.6 20:11:41 10° W 20:15:20 87° N 20:17:57 17° E
Cosmos 371 Rocket 3.3 20:11:45 10° NNW 20:16:34 83° WSW 20:21:07 11° SSE
Landsat 4 4.1 20:17:01 18° SE 20:19:14 41° ENE 20:22:34 10° N
Cosmos 304 Rocket 3.7 20:15:36 10° NNW 20:20:25 89° ENE 20:24:31 14° SSE
MetOp-B 4.2 20:15:38 12° SSE 20:20:35 66° ENE 20:25:56 10° N
Cosmos 1697 Rocket 4.0 20:18:57 16° SE 20:20:56 19° E 20:24:47 10° ENE
Cosmos 1777 Rocket 4.0 20:15:41 10° NNW 20:21:00 89° WSW 20:25:46 13° SSE
CSL-04 Rocket 4.5 20:16:10 10° S 20:21:32 52° W 20:26:52 10° NNW
COSMOS 2455 3.1 20:17:25 10° NNW 20:23:25 63° NE 20:27:59 18° SE
Okean 2 Rocket 3.0 20:20:38 10° S 20:25:07 72° E 20:29:37 10° NNE
ATLAS 3B R/B 2.8 20:18:08 10° SW 20:25:17 82° SE 20:32:58 10° NE
NOSS 8 (E) 4.4 20:27:04 10° NW 20:30:04 64° NE 20:31:59 24° ESE
SPOT 5 3.1 20:26:04 13° SSE 20:30:46 75° ENE 20:36:00 10° NNW
IRS-1A Rocket 4.4 20:28:47 14° SSE 20:33:54 74° ENE 20:39:45 10° NNW
Cosmos 405 Rocket 3.8 20:33:26 22° ESE 20:34:04 23° E 20:37:04 10° NE
CZ-4C R/B 3.1 20:29:41 10° NW 20:36:24 64° NE 20:42:37 19° ESE
Cosmos 2297 Rocket 2.2 20:30:52 10° NNW 20:36:34 82° ENE 20:40:35 20° SSE
BlueWalker 3 2.2 20:34:12 10° SW 20:37:50 43° SSE 20:40:37 16° E
Spot 2 Rocket 3.9 20:36:25 21° SE 20:39:32 49° ENE 20:44:24 10° N
Cosmos 1354 Rocket 4.3 20:36:16 10° NNW 20:41:34 67° WSW 20:45:57 15° S
Terra 2.0 20:40:08 23° SE 20:42:56 54° ENE 20:47:33 10° N
Cosmos 1656 3.6 20:38:14 10° SSW 20:43:41 60° ESE 20:49:06 10° NE
Cosmos 1455 Rocket 3.8 20:46:45 27° SE 20:48:17 35° E 20:52:16 10° NNE
Okean 1 Rocket 3.0 20:44:01 10° S 20:48:27 78° E 20:52:57 10° NNE
ATLAS 5 CENTAUR R/B 2.6 20:45:28 10° WSW 20:48:44 39° NW 20:52:28 10° NE
Sich 1 Rocket 3.9 20:44:27 10° SSW 20:48:50 68° WNW 20:53:18 10° N
Cosmos 332 Rocket 3.8 20:44:13 10° NNW 20:49:06 79° ENE 20:51:53 26° SSE
Iridium 4 Rocket 3.7 20:44:01 10° S 20:49:31 80° E 20:55:23 10° N
USA 245 3.7 20:46:54 21° SSE 20:50:17 74° ENE 20:54:33 10° N
Cosmos 2219 3.9 20:46:03 10° NNW 20:51:24 41° NE 20:54:33 22° ESE
Okean-O 3.7 20:48:53 10° S 20:53:04 43° W 20:57:18 10° NNW
CZ-4C R/B 3.7 20:52:02 10° N 20:55:22 52° WNW 20:58:40 10° SSW
Cosmos 1437 Rocket 2.9 20:55:12 10° N 20:59:04 57° ENE 21:00:22 37° SE
Genesis I 4.4 20:55:51 10° WNW 20:59:06 31° WSW 21:00:43 21° SSW
Ariane Rocket 3.0 20:56:31 26° SSE 20:59:20 71° ENE 21:04:23 10° N
Cosmos 1763 Rocket 3.7 20:57:44 21° S 21:00:47 47° ESE 21:05:42 10° NE
Cosmos 2263 Rocket 3.2 20:58:01 10° NNW 21:03:12 36° NE 21:06:06 22° E
Cosmos 44 3.5 21:00:04 10° SSW 21:05:23 61° SE 21:10:37 10° NE
Okean O Rocket 4.1 21:05:10 10° SW 21:08:09 18° W 21:11:10 10° NW
Cosmos 990 Rocket 3.9 21:04:08 10° NNW 21:09:21 88° WSW 21:11:52 31° SSE
USA 267 3.7 21:04:10 10° ENE 21:10:39 64° NNW 21:17:07 10° W
ARGOS Delta rocket 4.2 21:08:36 31° SE 21:11:10 63° ENE 21:16:35 10° N
NOSS 3-2 (A) 4.4 21:07:31 10° NW 21:14:19 54° NE 21:19:58 20° ESE
Cosmos 1605 Rocket 4.1 21:08:14 10° NNW 21:14:39 78° W 21:19:09 20° S
Aureole 1 Rocket 2.0 21:12:50 10° NNW 21:15:49 75° ENE 21:15:56 74° E
Cosmos 540 Rocket 3.6 21:18:45 35° SSE 21:20:29 50° ESE 21:25:26 10° NNE
Cosmos 1153 Rocket 4.4 21:16:23 10° N 21:22:45 78° E 21:25:55 31° SSE
Resurs 01 Rocket 4.4 21:21:11 10° WSW 21:23:17 13° W 21:25:23 10° WNW
Cosmos 2058 2.8 21:21:46 10° N 21:25:47 65° ENE 21:26:27 55° SE
MOS 1 Rocket 3.0 21:25:21 47° SE 21:26:27 69° ENE 21:30:51 10° N
Cosmos 1626 Rocket 4.0 21:24:07 10° N 21:28:23 46° ENE 21:29:06 42° ESE
Cosmos 372 Rocket 4.2 21:25:15 10° NNW 21:30:28 61° ENE 21:32:09 40° ESE
Cosmos 468 Rocket 4.0 21:31:31 38° S 21:33:19 60° ESE 21:38:29 10° NNE
ERS-1 Rocket 3.6 21:31:22 24° SSW 21:34:11 49° W 21:39:04 10° NNW
Cosmos 546 4.4 21:30:32 10° W 21:34:16 73° SSW 21:34:20 72° S
Cosmos 1802 Rocket 4.4 21:30:45 10° N 21:36:50 49° ENE 21:38:59 36° ESE
SPOT 3 Rocket 3.8 21:35:46 32° S 21:38:08 65° WSW 21:43:19 10° NNW
CENTAUR R/B 3.3 21:31:47 10° NW 21:39:49 79° NE 21:44:47 31° SE
NOSS 3-1 (A) 4.3 21:37:14 10° WSW 21:42:19 47° NNW 21:48:35 10° NE
Landsat 5 3.3 21:38:25 10° NNE 21:42:41 76° ESE 21:43:13 64° SSE
Cosmos 1869 4.3 21:43:56 32° ENE 21:43:56 32° ENE 21:46:39 10° NNE
Cosmos 841 Rocket 4.1 21:43:35 37° E 21:43:35 37° E 21:48:04 10° NE
Cosmos 2016 Rocket 4.4 21:38:13 10° N 21:44:06 46° ENE 21:45:55 36° ESE
ATLAS CENTAUR R/B 1.1 21:41:12 10° NW 21:44:58 73° SW 21:45:04 73° SSW
Cosmos 1844 Rocket 4.5 21:42:56 10° NNW 21:47:21 23° NE 21:50:30 15° E
Intercosmos 25 3.2 21:43:02 10° N 21:47:58 75° ENE 21:48:13 71° ESE
Cosmos 1544 Rocket 3.6 21:49:27 55° E 21:49:27 55° E 21:53:39 10° NNE
USA 229 DEB 3.6 21:44:37 10° SW 21:50:52 83° NW 21:57:50 10° NE
USA 229 3.6 21:44:43 10° SW 21:50:57 84° NW 21:57:55 10° NE
Cosmos 2100 Rocket 4.0 21:45:32 10° N 21:51:56 82° E 21:54:16 42° SSE
Cosmos 2227 Rocket 2.6 21:46:40 10° NW 21:52:11 53° WSW 21:54:10 36° SSW
Cosmos 1727 Rocket 3.9 21:49:08 32° S 21:52:18 88° E 21:58:35 10° N
SL-4 R/B 3.1 21:50:41 10° W 21:52:47 27° WSW 21:52:47 27° WSW
H-2A R/B 3.5 21:54:16 29° ENE 21:54:16 29° ENE 21:57:19 10° N
Cosmos 1980 Rocket 2.4 21:55:14 45° ESE 21:55:26 46° ESE 22:00:49 10° NE
Cosmos 292 Rocket 3.7 21:51:18 10° NNW 21:56:04 80° WSW 21:56:52 61° S
Cosmos 1937 Rocket 3.4 21:57:19 10° NNW 22:02:41 87° WSW 22:03:46 58° SSE
Cosmos 1000 Rocket 4.3 22:01:36 44° S 22:03:38 77° E 22:09:47 10° NNE
Okean 1-7 Rocket 3.6 21:59:23 10° N 22:03:55 67° ENE 22:04:09 66° E
Cosmos 1697 Rocket 2.7 22:00:32 23° SSW 22:04:11 84° WNW 22:09:54 10° NNE
Cosmos 2123 Rocket 4.1 22:05:45 47° SE 22:07:12 58° E 22:13:25 10° NNE
MetOp-A 3.9 22:08:40 45° WSW 22:08:45 46° W 22:12:27 10° NNW
COSMOS 2455 4.1 22:03:48 10° NW 22:09:02 32° WSW 22:11:08 25° SW
Cosmos 405 Rocket 4.2 22:07:47 24° WSW 22:09:09 32° WNW 22:12:32 10° N
CZ-2C R/B 4.3 22:06:35 10° NNE 22:10:47 45° E 22:10:47 45° E
Cosmos 1602 Rocket 3.5 22:06:57 10° N 22:11:18 73° ENE 22:11:18 73° ENE
Cosmos 1758 Rocket 3.4 22:07:31 10° N 22:12:00 82° E 22:12:06 81° ESE
Cosmos 2228 3.2 22:14:50 60° NE 22:14:50 60° NE 22:18:31 10° NNE
Cosmos 1898 Rocket 3.9 22:10:12 10° NNW 22:15:18 53° WSW 22:16:18 46° SW
BlueWalker 3 2.6 22:12:10 10° W 22:15:07 49° WNW 22:15:07 49° WNW
ATLAS 3B R/B 4.1 22:09:50 10° W 22:16:47 42° NNW 22:24:06 10° NE
ARIANE 5 R/B 2.6 22:17:17 69° E 22:17:21 69° ENE 22:21:50 10° N
Cosmos 2297 Rocket 4.1 22:16:01 10° NW 22:19:55 19° W 22:22:24 15° SW
Terra 3.7 22:18:50 17° SW 22:20:51 23° W 22:24:34 10° NW
CZ-4C R/B 3.5 22:18:09 10° NW 22:25:00 47° WSW 22:27:43 36° SSW
Cosmos 2369 3.6 22:27:50 62° SE 22:28:00 63° ESE 22:33:36 10° NE
Meteor 2-1 Rocket 4.4 22:28:09 43° SW 22:29:54 67° WNW 22:35:24 10° N
Cosmos 1825 Rocket 4.0 22:26:06 10° N 22:30:02 53° NE 22:30:02 53° NE
Cosmos 1666 4.3 22:27:19 10° N 22:29:23 26° NNE 22:29:23 26° NNE
NOSS 3-2 (C) 4.2 22:23:32 10° NW 22:30:37 68° NE 22:34:32 34° ESE
Lacrosse 4 Rocket 3.7 22:33:41 14° ENE 22:33:41 14° ENE 22:34:19 10° NE
SL-08 R/B 4.4 22:24:49 10° N 22:31:13 83° E 22:32:34 58° SSE
Meteor 2-8 Rocket 4.4 22:26:12 10° N 22:32:25 90° ENE 22:33:42 59° S
ATLAS 5 CENTAUR R/B 4.3 22:31:14 10° NW 22:33:47 17° N 22:36:36 10° NNE
Cosmos 1725 Rocket 3.9 22:27:35 10° N 22:33:48 85° W 22:35:10 57° S
Cosmos 2233 Rocket 3.9 22:28:01 10° N 22:34:12 70° ENE 22:35:19 57° SE
Cosmos 1459 Rocket 4.3 22:28:53 10° NNW 22:34:49 57° W 22:36:35 42° SW
Cosmos 2219 3.8 22:30:16 10° NW 22:35:36 43° WSW 22:36:27 40° SW
ALOS 2 3.6 22:35:57 36° ENE 22:35:57 36° ENE 22:39:48 10° N
Cosmos 2061 Rocket 4.0 22:34:12 10° N 22:40:42 85° E 22:42:00 60° SSE
Cosmos 1862 3.9 22:37:34 10° N 22:40:37 52° N 22:40:37 52° N
Cosmos 2263 Rocket 2.5 22:41:54 10° NW 22:47:20 51° WSW 22:47:47 50° SW
Cosmos 2360 Rocket 4.1 22:51:06 15° E 22:51:06 15° E 22:53:10 10° ENE
Cosmos 1271 Rocket 3.9 22:46:33 10° N 22:49:07 37° NNE 22:49:07 37° NNE
USA 267 3.9 22:46:54 10° ENE 22:53:14 54° N 22:59:35 10° WNW
Cosmos 2082 4.1 22:48:34 10° NW 22:53:57 47° WSW 22:54:20 46° WSW
Cosmos 1606 4.1 22:57:44 33° NW 22:57:44 33° NW 23:00:27 10° N
Meteor 2-3 Rocket 4.5 22:55:39 10° NNW 23:00:57 42° W 23:01:58 38° WSW
Lacrosse 5 4.3 23:05:57 12° ENE 23:05:57 12° ENE 23:06:19 10° ENE
Cosmos 2333 Rocket 4.1 23:03:47 17° E 23:03:47 17° E 23:06:11 10° ENE
Cosmos 2322 Rocket 3.6 23:03:59 24° E 23:03:59 24° E 23:07:20 10° NE
NOSS 3-2 (A) 4.2 22:58:18 10° NW 23:05:32 60° SW 23:07:20 50° S
Spot 4 3.9 23:09:20 76° NW 23:09:20 76° NW 23:13:50 10° NNW
Cosmos 1726 Rocket 4.2 23:10:52 50° NNE 23:10:52 50° NNE 23:14:09 10° NNE
Meteor 2-19 Rocket 4.3 23:16:07 70° SSW 23:16:53 84° WNW 23:23:01 10° N
Cosmos 1953 Rocket 4.1 23:15:41 10° NNW 23:19:07 54° NNW 23:19:07 54° NNW
SL-16 R/B 2.6 23:22:57 51° E 23:22:57 51° E 23:27:50 10° NE
Cosmos 1844 3.8 23:17:06 10° NNW 23:22:53 69° ENE 23:23:28 64° E
H-2A R/B 4.2 23:30:18 22° WNW 23:30:18 22° WNW 23:32:19 10° NW
CENTAUR R/B 3.9 23:22:46 10° NW 23:30:20 39° WSW 23:31:56 36° SW
USA 238 DEB 3.9 23:23:12 10° NW 23:30:28 81° NE 23:32:58 47° SE
USA 238 3.9 23:23:18 10° NW 23:30:34 81° NE 23:33:05 47° SE
Cosmos 1125 Rocket 3.5 23:26:44 10° NNW 23:31:49 80° NNE 23:31:49 80° NNE
Cosmos 1844 Rocket 2.5 23:26:25 10° NNW 23:32:04 86° ENE 23:32:08 85° E
Cosmos 1980 Rocket 3.3 23:36:55 25° W 23:39:33 39° NW 23:44:52 10° NNE
PSLV R/B 4.4 23:35:24 10° NNE 23:39:04 47° ENE 23:39:04 47° ENE
Meteor 2-14 Rocket 4.4 23:41:04 66° ESE 23:41:25 67° E 23:47:32 10° NNE
Cosmos 1072 Rocket 4.4 23:35:22 10° N 23:41:48 79° E 23:42:32 70° SE
Cosmos 2346 Rocket 4.3 23:42:06 76° S 23:42:39 89° E 23:48:57 10° N
Cosmos 2151 4.1 23:40:00 10° NNW 23:42:57 38° NW 23:42:57 38° NW
Cosmos 2278 3.6 23:44:40 82° W 23:44:50 84° WNW 23:50:33 10° NNE
Timation 2 Rocket 4.0 23:40:38 10° NNW 23:47:20 81° ENE 23:48:19 65° SE
